Theta_e
288 288 288 288 288 288 288 288 288 288 288 288 288 288 288 288 288 288 288 288 288 288 288 288 288 287 287 287 287 287 287 286 286 286 286 286 286 287 287 288 288 289 290 292 293 294 294 295 295 296 295 296 296 296 296 296 296 296 296 296 296 296 296 295 295 295 295 295 295 295 295 295 295 296 296 296 296 296 296 296 296 297 297 297 297
288 288 288 288 288 288 288 288 288 288 288 288 288 288 288 288 288 289 288 288 288 288 288 288 288 288 288 288 287 287 287 287 287 287 286 286 286 286 286 286 287 287 287 288 289 290 291 292 293 294 295 295 295 295 295 296 296 296 296 296 296 296 296 295 295 295 295 295 295 295 295 295 295 296 296 296 296 296 296 296 296 296 297 297 297
288 288 288 288 288 288 288 288 288 288 288 289 289 289 289 289 289 289 289 289 289 289 289 289 289 289 289 289 288 288 288 288 288 287 287 287 287 286 286 286 286 286 286 286 287 287 288 289 289 291 292 293 294 294 295 295 295 295 295 295 295 295 295 295 295 295 295 295 295 295 295 295 295 295 295 296 296 296 296 296 296 296 296 296 297
289 289 289 289 289 289 289 289 289 289 289 289 289 289 289 289 289 289 289 289 289 289 289 289 289 289 289 289 289 289 289 289 288 288 288 288 288 287 287 287 286 286 286 286 286 286 286 286 287 288 288 289 291 292 293 294 294 294 294 295 295 295 295 295 295 295 295 295 295 295 295 295 295 294 295 295 295 296 296 296 296 296 296 296 296
290 289 289 289 289 289 289 289 289 289 289 289 289 289 289 289 289 289 289 289 288 288 288 288 288 289 289 289 289 289 288 289 289 288 288 288 288 288 288 288 288 287 287 286 286 286 286 286 286 286 286 287 288 288 289 290 292 293 294 294 294 294 294 294 294 294 294 294 294 294 294 294 294 294 294 294 294 295 295 296 296 296 296 296 296
290 289 289 289 289 289 289 289 289 289 289 289 289 289 289 288 288 288 288 288 288 288 288 288 288 288 288 288 288 288 288 288 288 288 288 288 288 288 288 288 288 288 288 288 287 287 286 286 286 286 286 286 286 286 287 287 288 290 292 293 294 294 293 293 294 294 294 294 294 294 294 294 294 294 294 294 294 294 294 295 295 296 296 296 296
289 289 289 289 289 289 289 289 289 289 289 289 289 288 288 288 288 288 288 288 288 287 287 287 287 287 287 287 286 286 286 286 287 286 287 287 287 287 287 287 287 288 288 288 288 288 287 287 287 286 286 286 285 285 286 286 286 287 288 290 292 293 293 293 293 293 293 293 293 293 293 293 294 294 294 294 294 294 294 294 294 294 295 295 296
289 289 289 289 289 289 289 289 290 289 289 289 288 288 288 288 288 288 287 287 287 287 286 286 286 286 286 286 286 286 286 286 286 286 286 286 286 286 286 286 286 286 287 287 287 287 288 288 287 287 287 287 286 286 285 285 285 286 286 287 288 290 292 293 292 292 292 293 293 293 293 293 293 293 294 293 293 294 293 293 293 294 294 294 295
290 289 289 289 289 289 289 290 290 289 289 289 288 288 288 288 287 287 287 286 286 286 286 286 286 285 285 285 285 285 285 285 285 285 285 284 284 284 284 284 284 285 285 286 286 286 287 287 287 288 287 287 287 287 286 286 285 285 285 285 286 287 289 291 292 292 292 292 292 293 292 292 292 292 293 293 294 294 294 293 293 293 293 293 293
290 290 290 289 289 289 289 289 289 289 289 289 288 288 287 287 286 286 286 286 285 285 285 285 285 285 285 285 285 285 285 285 285 285 284 283 282 282 282 282 282 283 283 284 285 285 286 286 286 287 287 287 287 287 287 286 286 286 286 285 285 285 286 288 290 291 292 291 292 292 291 292 292 292 292 293 293 293 293 293 293 293 292 292 293
290 290 290 289 289 289 289 289 289 289 289 288 287 287 287 286 285 285 285 285 284 284 284 284 284 284 284 284 284 284 284 285 284 284 283 282 281 280 280 281 281 281 281 282 283 284 284 285 285 285 286 286 286 287 287 287 287 286 286 286 285 285 285 285 287 289 290 291 292 292 291 292 293 292 291 292 292 292 292 293 292 292 292 292 292
289 289 289 289 289 289 289 289 288 288 288 287 286 285 285 284 284 283 283 283 283 283 283 283 283 283 283 283 283 283 284 284 284 283 283 282 281 280 279 280 280 280 281 281 281 282 283 283 284 284 284 285 285 286 286 286 287 287 287 286 286 286 285 285 285 286 288 290 291 291 291 292 293 292 291 291 291 291 291 291 292 292 291 291 292
288 288 288 288 288 288 288 287 287 286 286 285 284 284 283 283 283 282 283 283 283 283 283 283 283 283 283 282 283 283 283 283 283 282 282 282 281 279 279 279 279 279 280 280 280 280 281 281 282 282 283 284 284 284 284 285 286 286 286 286 286 286 286 286 285 285 285 287 289 290 291 292 293 293 292 291 291 291 291 291 291 291 291 291 292
288 287 287 287 287 287 286 285 285 284 284 283 283 283 282 282 282 282 282 283 283 283 283 283 283 282 282 281 281 282 283 282 281 280 280 279 279 278 278 278 279 279 279 279 279 279 279 280 280 281 281 282 282 282 283 283 284 284 284 285 285 286 286 286 286 285 285 285 286 287 288 289 291 292 292 291 290 290 290 290 291 291 290 291 291
287 287 286 286 285 285 284 284 283 283 283 282 282 282 282 282 282 282 282 282 282 282 282 282 282 281 281 280 280 280 281 280 278 278 277 276 276 276 276 277 278 279 279 279 279 278 278 278 279 279 280 280 281 281 281 281 282 282 282 283 284 285 286 286 286 286 286 285 285 285 285 287 289 290 291 291 290 290 290 290 290 290 290 290 290
287 286 285 284 284 283 283 283 283 282 282 282 282 282 282 282 282 282 282 282 282 281 281 281 280 279 279 278 277 278 278 277 275 275 274 274 273 273 274 275 276 277 278 278 278 277 277 277 277 278 278 279 279 280 280 280 280 281 281 281 282 283 284 285 286 286 286 286 285 285 285 285 286 287 289 290 290 290 290 289 289 289 289 289 289
286 284 284 283 283 283 282 282 282 282 282 282 282 282 282 282 281 281 281 281 281 280 280 279 278 277 276 276 274 275 275 274 273 273 272 272 272 272 272 273 273 274 275 276 276 276 276 276 276 276 276 277 277 278 278 279 280 281 281 281 282 282 283 284 285 286 286 286 286 286 285 285 285 285 287 288 289 290 289 289 289 289 288 288 289
285 284 283 283 282 282 281 281 281 281 281 281 281 281 281 281 281 280 280 280 279 279 278 277 276 274 274 273 272 272 273 272 271 271 271 271 271 270 271 271 271 272 272 273 273 274 274 274 274 274 274 275 276 276 277 277 278 279 280 281 281 282 282 283 284 285 285 286 286 286 286 285 285 284 285 286 288 289 289 289 289 289 288 288 289
284 283 283 282 282 281 281 280 280 281 281 281 280 280 280 280 280 279 279 278 278 277 276 275 275 273 272 272 271 271 271 271 271 270 270 270 270 269 269 269 269 270 270 271 271 271 272 272 272 272 273 273 274 275 276 276 277 278 279 280 281 282 282 282 282 283 283 284 285 285 286 286 285 285 284 284 285 287 288 289 289 288 288 288 288
283 283 282 281 281 280 280 280 280 280 280 280 280 280 280 279 279 278 278 277 277 276 274 273 273 272 271 271 271 271 271 270 270 270 270 270 269 268 268 268 269 269 269 270 270 270 270 271 271 272 272 273 274 275 275 276 276 277 277 278 279 280 281 282 282 282 282 283 283 284 285 285 285 285 285 284 284 285 287 288 289 289 288 288 288
282 282 281 281 280 280 280 280 280 280 280 280 280 279 279 278 278 277 277 276 275 273 273 272 272 271 271 271 271 270 270 270 269 269 269 269 268 268 268 268 268 268 269 269 269 269 270 270 271 271 272 273 274 275 275 276 277 277 277 278 278 279 280 281 282 282 283 283 283 283 284 285 285 285 285 284 284 284 285 286 288 288 288 289 289
282 281 281 280 280 280 280 280 280 279 279 279 279 279 278 277 277 276 276 274 273 272 272 271 271 271 271 271 271 270 270 270 269 268 268 268 268 267 268 268 268 269 269 269 269 269 270 270 270 270 271 272 272 273 274 275 276 276 277 278 278 279 280 281 282 283 283 283 283 283 283 284 284 284 285 284 284 284 284 285 287 288 289 289 289
281 281 280 280 280 280 280 279 279 279 279 278 278 278 278 277 277 275 274 273 272 272 272 271 271 271 271 271 271 271 270 270 269 269 268 268 268 267 268 268 269 269 269 269 269 269 269 269 270 270 271 271 272 272 273 274 274 275 276 277 278 279 279 280 281 283 284 284 284 284 283 283 284 284 284 284 284 284 284 284 285 287 288 288 288
281 280 279 279 279 279 279 279 279 278 278 278 278 277 277 277 276 275 273 273 272 272 272 271 271 271 271 271 271 271 271 270 269 269 268 268 268 268 268 269 269 270 270 270 270 270 270 270 270 271 271 272 272 273 273 274 274 274 274 275 276 277 278 279 280 281 283 284 285 284 284 283 283 284 284 284 285 284 284 284 284 285 287 288 288
280 279 279 279 279 279 279 278 278 278 278 277 277 277 276 276 275 274 274 273 272 272 271 271 271 271 271 271 271 271 270 269 269 268 268 268 268 268 269 269 270 270 270 270 270 270 270 271 271 272 272 273 273 273 273 273 273 273 273 274 275 275 276 278 279 280 282 283 284 285 284 284 283 284 284 284 284 284 284 283 284 284 285 286 287
279 279 279 279 279 278 278 278 278 278 278 277 276 276 275 275 274 274 274 273 272 271 271 271 272 271 270 269 269 268 268 268 268 267 267 268 269 269 270 270 270 270 270 271 271 271 271 271 272 272 272 272 272 272 272 273 273 273 273 274 274 274 275 276 277 279 281 282 284 285 285 284 283 283 284 284 284 284 284 283 283 283 284 285 285
279 279 278 278 278 278 278 278 278 278 277 277 276 276 275 275 274 274 274 272 271 271 271 271 271 269 268 267 267 267 267 267 267 267 268 268 269 270 270 271 271 271 271 271 272 272 272 272 272 272 272 272 272 272 272 272 273 273 273 273 273 273 274 274 276 277 279 281 283 284 285 285 285 284 284 284 284 284 284 283 283 283 283 284 285
278 278 278 278 277 277 278 278 278 278 277 276 276 276 275 275 274 274 274 272 270 270 269 269 268 267 266 266 267 267 267 267 267 267 268 269 270 271 271 272 272 272 272 272 272 272 272 272 272 273 273 272 272 272 272 272 273 273 273 273 273 273 274 274 275 276 278 280 282 283 284 284 285 285 285 285 284 284 284 283 283 283 284 284 284
278 278 277 277 277 277 277 277 277 277 276 276 276 276 276 275 274 274 274 273 271 269 268 267 267 267 267 267 267 267 267 268 268 269 270 271 272 272 272 272 272 273 273 273 273 273 273 273 273 273 273 273 273 272 272 272 272 273 273 273 273 273 274 274 275 276 277 279 281 283 284 284 285 285 285 285 285 284 284 284 284 284 284 284 284
278 277 277 277 277 277 277 277 277 276 276 276 276 276 276 276 274 273 273 273 272 270 269 268 268 268 267 267 267 267 267 268 268 270 271 272 273 273 273 273 273 273 273 274 274 273 273 273 273 273 272 272 272 272 272 272 272 273 273 273 273 273 274 274 275 276 277 279 280 282 283 284 284 284 285 285 285 285 284 284 284 284 284 284 284
277 277 276 276 276 277 277 277 277 276 276 275 275 275 276 277 276 274 272 272 272 272 272 271 270 269 269 268 267 268 268 268 268 269 271 272 273 273 273 273 273 273 274 274 274 273 273 273 272 272 272 272 273 273 273 273 273 273 273 273 273 273 274 274 275 276 277 279 280 282 283 283 283 284 284 285 284 284 284 284 284 284 284 284 284
276 276 276 276 276 276 276 276 276 276 275 275 275 275 275 276 276 276 275 274 273 273 273 272 272 271 271 270 269 268 268 268 268 269 270 271 272 273 273 273 273 274 274 274 273 273 273 273 273 273 273 273 273 273 273 273 273 273 273 273 273 273 274 274 275 276 277 278 280 282 284 284 283 284 284 284 284 284 284 284 284 284 284 283 283
275 275 275 275 275 276 276 276 275 275 275 275 275 274 274 274 274 275 276 276 276 275 274 273 271 271 272 273 272 270 270 270 270 270 270 270 271 273 273 273 273 273 273 273 273 273 273 273 273 273 273 273 273 273 273 273 273 273 274 274 273 274 274 274 275 275 276 277 279 281 283 284 283 283 283 283 284 284 284 284 284 283 283 283 283
275 275 274 274 275 275 275 275 275 275 275 274 274 274 274 273 273 273 274 275 276 277 276 275 273 272 272 273 273 272 272 272 271 270 269 270 270 271 272 273 273 273 273 273 273 273 273 273 272 272 272 272 272 273 273 273 273 274 274 274 274 274 274 274 275 275 276 277 278 280 281 282 282 283 283 283 283 284 284 284 284 283 283 283 282
274 274 274 274 274 275 275 275 275 274 274 274 274 274 273 273 273 272 272 272 273 274 275 276 276 275 274 274 274 273 273 273 272 270 269 270 270 271 271 272 273 273 273 273 273 273 273 272 272 273 273 273 273 274 273 273 273 274 274 274 274 274 274 274 275 276 277 278 279 279 280 280 281 281 281 282 282 283 283 283 283 283 283 282 282
273 273 273 273 273 274 274 274 274 274 274 274 273 273 273 273 273 273 272 272 272 272 273 274 275 275 274 273 273 273 273 273 271 270 270 271 271 271 271 271 272 272 272 272 272 272 273 272 273 273 274 274 274 274 274 273 274 274 275 275 275 274 274 275 276 277 277 278 279 280 280 280 280 281 281 282 282 282 282 283 283 283 283 283 282
273 273 273 273 273 274 274 274 274 274 273 273 273 273 273 273 273 272 272 272 272 272 272 273 273 274 275 274 274 274 274 272 271 271 271 271 272 272 271 271 270 271 271 271 271 272 273 273 273 273 274 274 275 275 274 275 276 276 276 275 275 275 275 276 277 277 278 279 279 280 281 280 280 281 281 282 282 282 282 282 283 283 283 282 282
272 272 272 272 273 273 274 274 274 273 273 272 272 273 273 273 273 272 272 272 272 272 272 272 272 272 272 273 274 274 273 272 273 273 273 272 272 271 271 271 270 271 271 271 271 271 272 273 274 273 273 274 275 275 275 276 277 277 277 277 276 276 276 277 277 278 278 279 280 280 280 280 280 280 280 281 281 282 282 282 282 282 282 282 282
271 271 271 271 272 273 273 273 273 273 272 272 272 272 273 273 272 272 272 272 272 272 272 272 271 270 271 272 272 272 271 272 273 273 273 272 271 271 270 271 271 271 271 271 271 272 272 273 273 273 273 274 275 275 276 276 277 278 278 278 277 277 277 277 277 278 278 279 280 280 280 280 280 280 280 280 281 281 282 282 282 282 282 282 281
271 271 271 271 272 272 273 273 273 272 272 272 272 272 272 272 272 272 272 272 272 272 271 271 271 271 270 270 269 268 269 270 271 271 271 272 271 271 270 270 270 270 271 271 271 272 272 272 272 273 273 274 275 276 276 277 277 277 278 278 278 278 278 278 278 278 279 280 280 280 280 281 280 280 280 280 281 281 281 281 281 281 281 281 281
271 270 270 271 271 272 272 272 272 272 272 271 271 272 272 272 272 271 271 271 271 271 271 271 270 270 270 270 268 268 268 270 270 270 270 270 270 270 270 269 269 269 270 270 270 271 272 272 272 272 273 273 274 276 276 277 277 277 277 278 278 278 278 279 279 279 279 280 280 280 281 281 281 280 280 280 280 280 281 280 280 280 281 280 280
270 270 270 270 271 271 272 272 272 271 271 271 271 271 271 271 271 271 271 271 271 271 271 271 270 270 270 270 269 269 269 269 269 269 269 269 269 269 269 269 269 269 269 269 269 270 271 271 271 272 272 273 273 274 275 276 277 277 277 277 277 278 278 278 279 279 279 279 280 280 280 280 280 280 281 281 281 281 281 281 280 280 280 279 279
269 269 270 270 270 271 271 271 271 271 271 271 271 271 271 271 271 271 271 271 270 270 270 270 270 270 270 270 270 270 270 270 269 269 269 269 269 269 269 269 269 269 269 269 269 270 270 271 271 272 272 272 272 273 274 274 275 276 277 277 277 277 277 278 278 278 278 278 279 279 279 279 279 280 280 280 280 280 280 280 279 279 279 278 278
269 269 269 269 270 270 270 271 271 270 270 270 271 270 270 270 270 270 270 270 270 270 270 270 270 270 270 270 270 270 270 270 270 269 269 269 269 269 269 269 269 269 270 270 270 270 270 271 271 272 272 272 272 273 273 273 274 275 275 276 276 276 276 276 277 277 277 277 277 278 278 278 278 279 279 279 279 279 279 279 278 278 277 277 277
268 269 269 269 269 269 270 270 270 270 270 270 270 270 270 269 269 270 270 270 270 270 269 269 269 269 270 270 270 270 270 270 269 269 269 269 269 269 269 269 269 269 269 270 270 271 271 271 271 271 272 272 272 273 273 273 273 274 274 275 275 275 275 275 275 275 275 276 276 276 277 277 277 277 278 278 278 278 278 277 277 277 276 276 276
268 268 269 269 269 269 269 269 269 270 270 270 270 270 269 269 269 269 269 269 269 269 269 269 269 269 269 269 269 269 269 269 269 269 269 269 269 269 270 269 269 269 269 270 270 270 271 271 271 271 271 271 272 272 273 273 273 273 274 274 274 274 274 274 274 274 274 274 275 275 276 276 276 277 277 276 276 276 276 276 276 276 275 275 275
268 268 268 268 268 268 268 268 269 269 270 270 269 269 269 269 269 269 269 269 269 269 269 269 269 269 269 269 269 269 269 269 269 269 269 269 269 269 269 270 270 270 270 270 270 270 271 271 271 271 271 271 271 271 272 272 273 273 273 273 273 273 273 273 273 273 273 273 274 274 275 275 275 275 275 275 275 275 275 275 275 275 274 274 274
268 268 268 268 268 268 268 268 268 269 269 269 269 269 269 269 269 268 268 268 268 269 269 269 269 269 269 269 269 269 269 269 269 269 269 269 269 269 269 269 270 270 270 270 270 270 271 271 271 271 271 271 271 271 271 271 272 272 272 272 272 272 273 273 273 273 273 273 273 273 273 274 274 274 274 274 274 274 274 274 274 274 273 273 273
268 268 268 268 268 268 268 268 268 268 268 268 268 268 268 268 268 268 268 268 268 268 268 269 269 269 269 269 269 269 269 269 269 269 269 269 269 269 269 269 269 270 270 270 270 270 271 271 271 271 271 271 271 272 271 271 271 272 272 272 272 272 272 272 272 272 272 272 272 272 273 273 273 273 273 273 273 273 273 273 273 273 272 272 272
268 268 268 268 268 267 267 268 268 268 267 267 268 268 268 268 268 268 268 268 268 268 268 268 269 269 269 269 269 269 269 269 269 269 269 269 269 269 269 269 269 269 269 270 270 270 270 270 271 271 271 271 271 271 271 271 271 271 271 271 271 272 272 272 272 272 272 272 272 272 272 272 272 272 272 272 272 272 272 272 272 272 272 271 271
267 267 267 268 267 267 267 268 267 267 267 267 267 267 267 268 268 268 268 268 268 268 268 268 268 269 269 269 269 269 269 269 269 269 269 269 269 269 269 269 269 269 269 269 269 270 270 270 270 270 271 271 271 271 271 271 271 271 271 271 272 272 272 272 272 272 272 272 272 272 272 272 272 272 272 272 272 272 272 272 271 271 271 271 271
Wind_Speed
11 11 11 11 11 11 11 12 12 12 13 13 14 15 15 16 17 18 18 19 20 21 21 22 23 24 24 25 26 26 26 26 25 24 23 22 21 20 21 21 22 22 22 21 20 20 22 23 24 25 27 30 33 33 35 35 36 37 38 38 40 40 39 40 45 51 50 46 45 44 42 41 42 43 43 42 41 39 38 37 37 38 39 40 39
12 13 14 14 14 15 15 16 16 17 18 19 20 20 21 21 22 22 22 23 23 24 24 24 25 25 26 26 27 27 28 29 29 29 28 28 27 25 23 23 23 23 23 23 22 22 23 24 24 22 22 25 28 29 32 34 35 37 38 38 40 41 40 41 43 48 50 49 46 45 43 42 43 43 43 44 43 41 41 40 39 39 39 39 39
14 15 16 16 17 17 18 19 20 21 22 23 24 25 26 27 27 28 28 28 28 28 29 29 29 29 29 29 29 29 30 30 30 31 31 32 32 31 29 27 26 26 25 25 24 24 25 26 26 25 23 24 25 25 26 29 31 35 37 38 39 40 40 40 42 46 49 49 47 47 46 45 45 44 41 42 42 43 43 43 41 40 40 40 40
15 16 17 18 18 19 20 21 22 23 23 24 26 27 28 29 30 31 32 32 33 33 33 33 33 33 33 33 33 33 33 33 33 33 33 34 35 35 34 33 32 30 29 27 27 26 27 27 27 27 26 27 27 25 24 25 26 29 33 36 38 40 39 38 41 43 46 47 47 46 45 46 48 46 43 41 41 41 43 44 43 43 43 42 42
17 18 19 19 20 21 22 23 24 25 26 27 28 29 30 30 31 32 33 34 34 35 35 35 35 36 36 37 37 37 37 37 37 36 35 35 36 37 37 37 37 36 34 33 31 29 29 29 29 29 28 29 29 28 26 25 25 26 28 30 33 36 38 38 40 41 43 46 47 45 44 45 46 47 46 45 43 41 41 42 43 45 45 44 44
19 19 21 22 22 23 24 25 27 28 29 31 32 33 33 34 34 34 34 35 35 36 36 37 37 38 38 38 39 39 39 39 39 39 38 37 37 37 38 38 39 39 39 38 36 34 33 32 32 31 31 31 31 30 29 28 27 27 27 28 28 31 34 37 39 40 42 45 46 44 44 44 44 46 47 47 47 46 45 44 43 44 45 46 46
18 19 20 21 22 24 25 27 28 29 31 33 35 36 36 37 37 37 37 38 38 38 39 39 40 40 41 41 42 42 42 42 42 41 41 41 40 40 40 40 39 40 40 40 41 40 39 37 36 34 33 34 33 32 31 30 29 30 29 28 28 29 31 33 35 38 41 44 45 44 44 43 42 44 45 45 46 48 49 48 48 47 46 46 46
17 18 19 21 23 26 28 29 30 31 33 35 37 37 37 37 37 37 38 39 39 40 41 42 43 44 45 46 46 47 47 47 47 47 46 46 45 45 44 44 44 43 42 41 41 42 43 43 41 39 37 36 36 35 34 32 31 32 31 30 30 30 30 31 33 36 39 42 44 45 44 42 42 42 42 43 46 50 51 50 51 53 52 50 49
20 21 23 25 28 30 31 32 33 34 36 38 39 39 38 38 37 37 38 39 40 42 43 44 45 46 47 48 49 50 52 52 52 53 53 52 52 51 49 48 48 48 48 47 45 44 44 44 45 45 43 41 39 37 37 36 35 34 33 32 32 32 32 32 33 35 37 40 43 44 43 43 43 42 42 44 47 50 50 49 51 53 52 52 52
24 25 26 28 30 31 32 33 34 35 37 39 40 40 40 39 39 39 40 42 43 44 46 47 48 49 50 51 52 52 53 54 55 56 56 55 53 51 50 49 49 49 50 50 51 50 48 47 47 47 47 47 45 42 40 38 37 38 37 34 33 34 35 35 35 35 37 39 42 42 42 44 46 44 43 45 45 45 45 47 50 50 49 50 53
24 25 26 28 29 30 31 32 33 36 38 39 40 40 40 40 41 42 44 45 46 47 49 50 51 52 53 54 55 55 55 55 56 56 56 55 51 47 45 46 47 48 49 49 51 53 53 53 52 50 49 49 49 48 46 43 40 40 40 38 37 36 36 37 38 37 38 40 41 42 43 45 46 44 43 43 42 41 43 45 46 47 48 50 53
22 24 25 27 28 30 32 33 35 37 38 39 39 40 41 42 44 45 47 47 48 49 50 51 52 53 53 54 55 55 56 56 55 55 55 55 53 47 44 44 46 46 47 47 49 51 52 54 54 55 54 53 51 51 51 49 47 44 42 41 40 39 38 38 39 40 40 41 42 43 44 45 46 44 43 43 41 41 41 42 44 47 48 51 53
23 25 27 29 30 32 33 34 35 36 37 38 39 41 42 44 45 46 47 48 49 49 50 51 51 52 52 53 54 55 56 55 55 55 55 55 54 50 46 46 48 48 49 49 49 50 51 51 52 53 55 55 54 53 53 53 52 50 48 45 43 42 41 40 40 40 41 42 44 45 44 44 45 44 43 42 41 40 41 42 44 46 47 50 53
26 28 29 30 31 32 32 32 33 35 37 38 41 42 43 45 45 46 47 48 49 50 51 52 52 53 53 54 55 57 57 57 55 55 54 54 54 51 48 50 52 52 53 52 51 50 50 49 50 51 53 54 54 53 53 53 53 54 53 51 48 46 44 44 43 42 42 42 45 47 45 44 45 44 42 41 40 41 42 42 43 44 46 48 49
28 29 29 29 29 29 30 32 34 37 38 40 41 42 43 45 45 46 47 48 49 51 52 53 54 55 55 55 56 58 59 57 55 54 52 51 50 48 47 50 52 55 56 56 54 52 51 50 50 51 52 52 52 51 50 49 50 51 52 53 53 51 48 47 45 45 44 44 45 47 47 45 45 44 43 43 43 42 42 41 41 40 40 42 44
28 28 27 27 28 29 32 35 37 39 40 41 42 43 43 44 45 46 47 49 50 51 52 54 55 55 56 55 55 57 58 54 51 50 48 46 45 44 45 47 50 53 56 56 54 53 51 51 51 52 52 53 53 52 49 46 46 47 50 52 54 55 54 52 49 47 47 46 45 46 46 46 45 43 43 43 43 43 42 40 38 37 37 38 41
28 28 27 28 30 32 34 36 38 39 40 41 41 42 43 43 44 46 48 50 51 52 53 54 53 53 53 52 51 52 53 49 45 43 42 41 40 41 43 44 46 49 52 53 53 53 53 52 51 51 52 54 54 52 47 43 42 44 47 49 51 53 56 56 53 50 48 48 48 46 45 45 45 43 42 41 41 41 41 41 41 40 39 40 43
29 28 29 31 33 34 35 36 37 38 38 39 40 41 42 43 45 46 48 50 51 51 52 53 51 49 48 47 45 46 47 44 39 38 37 35 35 36 38 40 42 44 46 48 49 49 50 50 47 46 48 51 50 48 43 40 42 43 45 47 49 52 55 57 56 54 51 49 49 48 47 46 44 44 42 40 39 39 41 43 44 42 41 43 47
30 30 31 33 34 35 35 35 36 36 37 38 39 41 42 44 45 46 47 48 50 50 49 49 49 46 44 43 42 41 42 41 36 34 33 31 29 30 32 35 38 40 40 42 44 44 45 46 44 42 44 47 46 44 41 40 42 44 45 46 49 52 55 55 55 55 53 51 49 49 49 47 45 44 43 41 39 38 41 43 43 42 43 46 47
30 31 32 34 34 34 34 34 35 35 37 38 40 41 43 44 45 45 46 47 47 47 46 45 45 44 41 41 39 38 38 38 35 31 29 27 25 26 29 32 35 38 38 39 42 43 43 43 42 39 38 39 40 39 39 39 40 43 45 47 50 53 54 53 53 53 53 52 51 49 49 49 47 45 44 43 40 38 39 41 43 44 45 47 47
30 32 33 33 33 32 32 33 34 35 36 38 40 41 42 42 43 44 45 45 45 44 42 41 41 41 39 38 37 36 35 34 32 28 26 24 23 25 29 31 33 37 39 39 40 41 39 38 37 34 32 33 34 35 35 35 36 38 42 45 48 50 49 51 53 52 51 50 50 49 49 49 48 46 44 44 42 40 38 39 41 43 46 48 48
32 33 33 32 32 32 32 32 33 35 36 37 40 41 40 40 41 42 42 42 41 40 39 38 38 39 38 36 35 34 32 30 29 27 26 26 26 27 29 32 33 36 40 42 41 41 40 38 37 36 34 35 36 36 37 37 37 38 41 42 43 44 45 47 49 51 51 50 49 49 50 50 49 47 45 44 43 42 40 39 39 41 44 46 47
33 33 32 32 31 31 31 32 33 34 35 36 38 39 39 39 39 39 38 38 39 38 37 37 37 38 38 36 35 33 31 29 29 29 29 30 30 29 31 33 33 34 38 42 42 42 42 42 41 39 36 36 37 37 38 38 39 41 42 42 42 43 44 47 49 49 50 50 50 50 50 50 50 48 46 45 44 43 42 40 39 39 40 42 45
33 32 31 31 30 30 31 32 33 34 34 35 36 37 37 37 37 36 35 35 36 36 36 36 37 38 38 37 35 33 32 32 31 31 32 32 32 31 30 31 32 33 35 39 40 42 42 42 41 40 38 37 38 38 38 38 39 40 41 43 44 44 44 45 48 50 50 49 50 51 51 51 51 50 48 46 43 42 42 41 40 39 38 39 40
32 31 30 30 29 30 31 31 32 33 33 33 34 34 34 35 35 34 33 33 34 35 36 37 37 38 38 38 37 35 34 35 35 35 35 34 32 30 29 29 30 32 34 37 39 40 41 41 40 39 38 38 38 39 39 38 37 37 38 39 43 46 46 45 45 48 50 51 50 51 52 52 51 51 49 46 43 42 42 41 40 39 38 36 37
31 30 29 29 28 29 31 31 31 32 31 31 31 31 31 32 33 33 32 32 33 35 36 36 37 38 38 39 39 39 39 39 40 39 38 36 34 33 33 33 33 33 34 36 37 38 38 38 38 38 38 38 39 39 39 38 37 37 38 38 39 43 47 49 47 45 47 51 51 50 50 51 51 50 48 46 44 43 42 41 41 40 38 37 36
30 29 28 28 28 29 31 31 32 32 31 30 29 28 28 30 31 31 31 32 33 35 35 36 37 38 40 41 41 42 41 41 41 40 38 36 37 37 38 38 37 37 37 39 39 39 38 38 38 39 40 40 40 40 40 40 39 39 40 39 39 40 43 49 51 47 45 47 50 50 48 48 48 48 48 47 46 45 43 42 41 40 39 37 36
29 28 27 27 27 29 30 31 31 31 30 29 28 27 27 29 30 28 28 31 34 35 36 37 38 38 39 41 42 42 42 41 41 40 38 37 37 38 38 39 40 41 42 42 43 42 41 39 39 39 40 41 41 41 42 42 41 41 41 41 41 40 40 43 48 51 48 46 46 48 48 46 45 46 47 47 47 45 44 42 42 41 39 37 36
28 27 26 26 27 28 29 29 30 30 30 29 27 26 26 28 31 30 28 28 32 33 33 35 36 36 37 38 39 41 41 41 39 37 35 33 33 34 35 36 38 39 39 40 40 40 38 38 38 39 40 41 42 42 43 44 44 43 43 42 42 41 39 39 43 48 49 46 44 45 45 44 43 44 45 45 46 45 44 43 42 41 39 38 37
27 26 25 26 27 28 28 28 28 28 29 29 28 27 24 23 26 30 30 28 29 30 31 31 31 32 33 34 34 35 37 38 37 34 32 30 30 32 32 32 32 32 32 32 34 35 35 36 37 39 41 42 43 44 46 46 46 46 45 44 42 40 39 39 39 42 44 44 44 44 44 43 42 42 42 43 43 43 42 42 42 41 40 39 39
27 26 25 25 26 27 28 28 28 27 27 27 28 29 27 22 18 22 27 31 31 29 28 28 28 28 29 30 31 31 32 34 34 34 33 32 30 30 30 29 28 29 29 30 32 34 35 36 38 39 41 42 43 45 45 45 46 46 45 44 42 40 39 38 37 37 39 40 41 43 47 47 45 43 42 41 40 40 40 40 40 40 40 39 39
26 25 25 25 25 26 27 27 27 27 27 26 26 28 30 28 22 18 20 25 29 30 29 27 26 27 27 27 29 30 31 32 33 34 34 32 29 28 28 28 28 28 29 30 34 36 37 37 38 39 40 41 42 43 43 44 44 44 44 44 42 40 39 38 36 35 36 37 36 38 43 46 43 41 40 39 38 38 39 40 40 39 39 39 39
24 24 25 25 24 25 25 26 26 26 25 26 26 26 28 31 31 28 23 21 21 23 25 26 28 29 27 26 26 28 29 30 31 31 31 32 31 28 27 28 29 31 32 33 34 36 36 36 37 38 39 40 41 43 44 45 45 44 44 43 42 39 36 35 34 34 34 34 33 33 35 38 39 38 37 37 38 39 39 41 41 40 39 39 39
23 23 24 24 24 24 24 24 25 25 24 24 25 26 27 28 31 33 33 30 26 22 21 22 26 29 30 28 26 27 27 28 28 28 29 32 31 29 27 29 30 31 31 30 31 31 32 33 34 36 38 40 43 44 46 46 45 44 44 43 40 36 33 31 31 33 33 32 32 32 30 30 34 36 36 36 37 38 39 41 42 41 40 40 39
22 22 23 23 23 23 23 23 23 23 23 23 23 25 27 28 28 30 31 32 33 31 28 25 25 28 30 29 28 28 27 27 27 28 29 30 29 28 27 28 29 28 26 25 25 26 27 29 31 33 36 39 41 42 43 43 42 41 41 39 35 32 29 27 28 30 30 30 31 32 31 30 31 33 35 36 37 38 39 41 42 43 42 41 40
21 21 21 22 22 22 22 21 22 22 22 22 23 24 25 26 27 27 28 29 30 31 31 29 27 27 28 28 28 28 28 28 29 29 28 26 25 25 25 25 26 26 26 24 24 24 25 26 29 31 34 37 38 38 38 37 35 33 33 31 29 27 25 24 25 27 28 29 30 32 33 33 33 34 35 37 38 38 39 41 42 42 42 41 39
20 21 20 21 21 21 21 20 20 20 20 21 22 23 24 24 25 25 26 27 27 27 27 27 27 27 28 28 28 29 29 30 30 28 24 22 21 20 21 22 23 24 24 24 23 24 25 26 28 31 34 35 34 35 36 34 29 25 24 22 21 21 22 22 23 25 27 29 31 31 32 32 32 32 34 36 37 38 40 41 41 41 40 39 38
20 20 19 20 20 20 20 19 18 18 19 19 20 21 22 23 23 23 24 24 24 24 24 25 26 27 28 28 29 30 31 31 29 27 25 23 22 21 21 21 21 22 23 24 24 25 26 27 28 30 33 33 33 34 34 30 25 22 20 19 18 19 20 22 23 25 26 27 28 29 29 29 29 30 32 34 35 36 38 40 41 40 39 37 37
19 18 18 18 19 18 18 18 17 17 18 18 19 20 20 21 21 21 21 22 22 22 22 23 24 25 26 27 28 30 31 31 30 30 29 27 25 23 22 21 21 22 23 23 24 25 26 27 28 29 30 30 31 32 31 29 25 22 21 20 20 21 22 24 26 27 26 26 26 28 30 30 29 29 30 32 33 33 35 38 40 38 36 36 38
18 17 16 17 17 17 16 16 16 16 17 18 18 18 19 19 19 19 19 20 21 21 21 22 23 23 24 25 27 28 29 30 30 30 30 29 27 25 24 23 22 22 22 23 23 24 25 26 26 28 28 28 29 30 30 28 25 22 20 20 21 22 22 24 25 26 24 24 26 29 31 30 27 25 26 29 30 30 31 34 35 34 34 37 39
17 16 16 16 15 16 15 15 15 15 16 17 17 17 17 17 17 17 18 18 19 20 20 20 20 21 22 23 23 24 26 28 30 30 31 31 30 29 27 25 24 23 23 23 23 24 25 25 25 26 26 26 26 26 27 26 24 22 20 19 18 19 20 20 21 22 22 22 24 28 30 29 26 23 23 25 28 29 30 32 33 35 37 38 38
16 15 15 15 15 15 15 14 14 14 15 15 16 16 16 16 15 16 16 17 18 18 18 18 18 19 20 21 22 22 24 26 28 29 30 31 31 31 30 28 26 25 23 23 22 23 23 23 24 25 25 24 24 24 24 23 22 21 20 18 17 16 16 16 17 18 19 19 21 25 27 27 26 24 24 26 28 31 33 34 35 36 36 36 35
16 15 15 14 14 15 15 15 14 14 14 15 15 15 15 15 15 15 16 16 16 16 17 17 17 18 18 20 20 22 23 25 26 28 29 29 30 31 32 31 30 28 25 23 22 22 22 22 22 23 23 23 23 23 22 21 20 18 17 16 15 14 13 12 11 12 13 13 14 16 19 21 22 22 23 25 27 29 31 32 32 32 32 32 32
15 14 14 13 13 13 14 14 14 14 14 14 14 15 14 14 14 14 15 14 15 15 15 16 17 17 18 19 20 22 23 25 26 27 27 28 29 29 30 31 31 30 29 27 25 23 23 22 22 21 21 21 21 21 21 20 19 17 15 14 13 12 12 11 10 9 10 10 10 10 11 13 16 17 18 20 22 24 25 26 27 27 27 27 28
15 14 13 12 12 12 13 13 13 13 13 12 12 13 13 13 14 14 14 14 14 13 14 15 16 17 18 19 20 22 23 24 25 26 27 27 28 28 28 29 29 30 30 29 28 27 25 25 24 23 22 21 20 19 19 19 19 17 16 14 13 12 11 11 11 10 10 10 10 9 8 8 9 12 13 15 16 18 19 20 21 22 23 23 24
14 14 13 12 11 11 12 12 12 12 12 12 12 12 12 13 13 13 13 13 13 12 13 14 15 16 17 19 20 21 22 23 24 25 26 27 27 28 28 28 28 28 28 28 28 28 27 26 26 25 25 24 22 20 19 18 18 17 16 15 13 12 11 11 11 10 9 9 9 8 7 6 5 7 9 10 11 13 14 15 16 17 18 20 21
14 13 13 12 11 11 11 11 11 11 11 12 12 12 12 12 12 12 12 12 12 12 12 13 14 15 16 17 19 20 21 21 22 23 24 25 26 27 27 27 27 28 27 27 27 27 27 27 26 26 26 26 26 24 22 20 18 17 16 15 14 12 11 10 11 11 10 9 8 7 6 5 3 3 5 6 8 9 10 11 13 14 15 16 17
13 13 12 11 11 11 11 11 11 11 11 11 12 12 12 12 12 12 12 11 11 12 12 13 14 15 15 16 17 18 19 19 20 21 22 23 23 24 25 26 27 27 27 27 27 27 27 27 27 27 27 27 27 27 27 25 23 21 19 18 17 16 14 13 12 12 12 11 9 8 7 5 3 1 2 4 5 6 8 9 10 11 12 13 15
13 12 11 11 11 11 11 11 11 11 11 11 11 11 12 12 12 11 12 11 12 12 12 13 14 15 15 16 16 17 17 18 19 19 20 21 21 22 23 24 25 26 26 26 27 27 27 26 26 27 28 28 28 28 28 28 27 26 25 24 22 21 19 17 16 15 14 13 11 10 9 7 4 3 2 3 4 4 6 7 9 10 11 13 14
12 11 10 10 10 11 11 11 11 11 11 11 12 12 12 12 12 12 12 12 11 12 12 12 13 14 15 16 16 17 17 18 18 18 19 20 20 21 21 22 23 24 25 25 26 26 27 27 27 26 27 28 28 28 28 28 28 28 27 26 25 24 23 22 21 20 18 16 14 12 11 9 7 6 5 5 4 5 6 7 9 10 11 12 14
10 10 10 10 10 10 10 10 11 11 11 12 12 12 12 12 12 12 12 13 12 12 12 13 13 14 15 15 16 16 17 17 17 18 18 19 19 20 21 21 21 22 23 23 24 25 25 26 27 26 26 26 27 27 27 27 26 26 25 25 25 24 24 24 24 23 21 20 18 16 14 12 11 10 9 8 7 7 8 9 10 11 11 12 12
Wind_Direction
11 9 6 5 1 357 354 350 349 348 347 346 343 342 339 337 335 334 333 332 330 328 326 325 324 322 322 322 323 324 325 326 326 326 325 323 320 318 316 315 314 313 311 309 308 307 303 299 295 290 284 277 272 268 264 261 261 260 258 258 257 255 256 258 260 264 265 264 265 266 265 264 262 261 261 261 260 260 259 256 253 252 251 250 248
3 359 357 355 351 348 346 343 343 343 343 342 341 339 338 336 334 332 330 329 328 327 325 322 321 318 317 316 316 316 317 317 318 319 320 320 319 318 317 314 312 311 311 310 309 308 305 303 302 301 297 289 283 278 273 269 265 262 260 259 258 257 256 257 260 263 264 264 263 264 263 263 262 260 260 260 260 261 260 258 255 252 251 251 249
357 354 351 348 344 342 340 338 339 338 338 338 337 335 334 332 331 329 327 326 324 324 322 320 319 317 315 314 313 312 312 312 312 312 313 314 314 314 314 314 312 310 308 308 308 307 305 303 303 303 301 296 292 289 285 279 273 268 265 262 260 260 259 258 260 262 264 265 263 262 261 261 261 260 260 260 260 260 260 258 256 254 252 251 249
347 343 339 337 334 332 332 331 332 332 333 332 331 329 327 326 325 324 323 322 320 320 319 318 317 315 314 313 312 312 311 310 309 308 308 309 309 309 309 309 308 307 306 305 304 304 303 302 302 302 300 297 295 295 294 289 284 277 272 268 265 263 262 261 260 262 264 266 264 262 261 260 259 259 259 258 257 256 257 257 255 253 251 250 248
336 334 330 330 328 327 327 327 327 328 329 328 326 324 322 320 319 318 317 317 317 317 317 316 315 314 313 312 311 311 310 309 308 307 306 306 305 305 304 304 303 303 302 301 300 299 299 298 299 300 299 297 295 295 295 293 290 285 280 275 270 268 266 264 262 262 264 265 265 264 262 260 258 257 257 256 255 254 254 253 252 251 249 248 246
330 328 325 325 323 321 321 321 322 323 323 323 321 319 318 317 316 317 316 316 315 315 314 313 312 311 311 310 310 309 308 307 307 306 306 305 304 302 301 300 299 299 299 299 298 297 295 294 294 295 295 295 294 294 293 292 290 287 283 281 277 273 270 267 265 264 263 263 265 265 263 261 259 257 255 255 255 255 254 253 252 250 247 246 245
321 320 318 316 312 309 309 311 313 314 315 316 316 316 315 315 316 316 316 316 315 315 314 313 312 311 310 309 309 308 307 305 305 304 304 303 302 301 299 298 297 296 295 295 295 296 294 293 291 290 289 290 291 292 291 290 288 286 284 283 281 277 273 270 267 265 264 264 264 265 264 262 260 258 256 255 255 255 254 254 253 251 249 247 245
306 306 303 301 299 299 301 304 306 307 309 311 312 312 312 312 313 313 314 313 313 312 311 311 310 309 309 308 308 307 306 305 305 304 303 302 301 300 298 297 296 295 293 292 291 291 291 292 291 289 287 285 285 286 287 287 287 285 284 283 282 279 276 273 270 268 266 265 265 265 265 265 262 258 256 253 251 251 251 251 252 252 251 250 248
293 292 291 291 292 294 297 300 302 303 305 308 309 310 310 311 310 310 310 309 309 308 307 307 306 305 305 304 304 304 303 303 303 303 303 303 302 301 300 298 297 295 293 291 289 287 287 287 287 288 287 285 282 281 281 282 283 283 283 282 281 280 277 275 272 270 268 267 266 265 265 265 262 259 256 252 250 250 251 252 253 253 253 253 251
290 290 289 288 288 290 291 294 296 298 301 304 306 307 307 307 307 307 307 306 305 304 304 303 302 302 301 300 300 299 299 299 299 300 302 303 304 303 302 300 299 297 294 292 289 286 285 283 282 283 284 285 284 281 278 277 277 278 279 280 280 279 277 275 272 269 268 267 266 266 265 264 262 260 258 255 254 254 253 253 254 254 254 254 253
294 293 292 290 290 289 289 290 292 294 297 299 301 301 302 303 303 303 302 302 301 301 301 301 300 300 299 299 298 297 296 295 295 296 297 300 302 303 302 300 298 296 294 292 289 287 285 283 282 280 279 280 281 281 281 278 274 273 274 274 276 276 276 275 272 270 268 266 266 266 264 264 264 262 260 260 258 256 255 255 255 255 254 253 253
296 294 293 292 290 290 289 290 291 293 295 297 298 299 299 300 300 300 300 301 301 301 301 301 301 301 300 299 298 297 296 295 294 293 294 295 297 300 300 298 296 293 292 290 288 287 285 284 282 281 280 278 277 278 279 278 276 274 271 270 270 270 272 272 272 270 268 266 266 265 264 265 266 264 261 260 259 257 256 255 255 255 254 254 254
296 294 293 291 290 290 290 291 293 294 296 297 298 299 300 301 301 302 303 304 304 304 304 304 303 303 302 301 299 298 297 296 295 294 293 292 293 295 296 294 292 290 289 287 286 286 285 284 283 281 280 279 278 277 276 275 276 276 274 272 269 266 266 267 269 269 268 266 265 265 265 265 265 265 264 262 260 258 255 254 253 254 254 254 255
296 295 294 293 292 292 293 294 295 296 297 299 300 301 303 304 305 306 307 308 308 307 307 306 305 304 303 301 299 297 296 295 295 294 293 292 292 292 293 290 288 287 286 285 285 284 283 283 282 281 279 278 278 278 277 276 275 275 276 275 272 268 265 263 264 265 266 266 263 264 266 266 265 267 266 262 259 258 256 254 254 254 254 256 259
297 296 295 294 294 294 295 297 299 300 302 303 305 306 307 308 309 310 310 309 309 309 308 307 306 304 302 300 298 296 295 295 295 294 293 293 292 292 291 288 285 284 283 282 283 283 282 281 280 279 279 277 276 276 277 278 277 276 276 275 273 271 267 264 261 260 262 264 264 265 266 266 266 267 266 263 261 260 259 259 258 258 257 259 260
299 298 297 296 296 299 301 303 304 306 307 308 309 310 310 310 311 311 310 310 309 308 307 306 305 303 302 301 300 298 296 296 297 296 295 294 293 291 289 286 284 283 281 281 281 281 280 279 278 278 277 277 276 275 276 278 279 278 277 275 273 272 269 266 263 260 259 260 262 264 266 266 266 265 265 264 263 262 260 259 258 257 254 253 253
302 300 299 301 303 306 308 308 309 310 310 311 311 311 311 312 312 312 311 310 310 309 309 307 306 305 304 303 303 301 300 300 301 299 297 296 294 292 289 287 285 283 281 281 280 279 278 278 279 279 279 278 277 277 276 277 276 276 276 276 274 273 270 267 264 262 260 258 259 261 263 264 264 263 262 260 260 261 259 255 253 251 248 246 248
304 303 304 307 310 311 312 312 312 311 311 312 311 312 313 313 313 313 312 312 312 311 310 308 307 307 306 306 306 304 302 303 304 303 301 300 298 295 293 291 288 286 286 285 283 282 281 280 281 281 280 279 279 278 277 276 273 272 272 273 273 272 270 267 266 265 262 260 259 258 259 260 262 262 260 257 254 254 253 253 252 248 245 245 247
305 305 308 310 312 313 313 313 312 312 312 313 313 314 315 315 315 314 314 314 313 312 310 309 308 309 309 308 308 307 305 306 307 307 305 305 303 299 296 294 291 290 289 288 287 287 285 284 284 283 281 281 281 280 278 275 272 269 268 269 270 269 269 268 267 267 266 264 262 260 258 258 259 261 261 258 254 251 249 251 251 247 244 245 247
305 307 309 312 313 314 313 312 312 312 313 315 316 316 316 316 316 316 315 315 313 311 311 310 310 310 311 311 311 310 309 309 310 311 310 308 306 302 299 296 294 293 292 291 290 291 290 290 290 289 288 287 286 284 281 277 273 270 267 265 265 266 267 268 268 268 268 267 266 265 262 259 257 259 260 259 256 252 248 248 248 245 244 246 246
306 309 311 313 313 313 313 312 313 315 316 317 317 317 317 317 317 317 317 316 313 312 312 312 311 312 313 313 313 313 312 312 313 314 313 312 310 304 299 296 295 294 294 294 294 293 294 294 294 293 292 290 288 287 285 281 277 273 269 265 264 264 266 268 268 267 266 266 266 266 264 260 256 255 257 257 254 251 248 247 246 245 245 245 245
308 311 313 314 313 313 313 313 315 317 318 318 316 317 318 318 318 319 318 315 313 312 314 315 315 315 315 315 315 315 315 315 316 317 318 318 315 307 299 296 296 295 295 296 295 294 294 293 293 293 292 290 288 286 284 282 280 276 272 269 267 266 265 265 267 266 264 262 262 262 261 260 257 255 254 254 253 250 248 246 246 246 246 248 247
310 312 314 314 314 314 313 315 317 318 318 317 317 317 318 319 319 320 318 315 314 315 318 320 319 318 318 318 318 319 319 319 319 320 322 322 319 311 302 296 295 294 293 293 294 295 296 296 297 299 297 292 289 287 285 283 281 278 275 273 272 270 267 264 263 263 262 258 256 256 257 257 257 254 252 251 251 250 249 248 248 248 248 249 250
311 313 313 314 313 314 315 316 318 318 318 318 317 318 320 321 320 320 318 316 317 320 323 325 324 322 321 321 321 323 323 323 322 323 324 324 321 315 308 301 299 296 294 294 296 298 299 300 300 300 297 292 289 288 286 284 282 281 278 275 272 272 271 267 262 259 259 257 253 251 252 254 254 253 250 249 250 251 251 251 252 253 252 252 252
311 312 313 313 314 314 315 317 318 318 319 318 318 321 323 322 320 320 320 321 323 327 329 329 326 324 324 325 326 327 327 326 325 325 325 324 321 320 318 314 311 305 299 297 298 298 298 298 297 295 293 291 292 291 289 286 285 284 283 280 276 271 268 268 267 261 256 254 251 249 249 250 252 252 250 249 250 251 252 252 253 255 255 255 253
311 313 313 313 314 315 316 317 318 319 319 318 320 324 325 322 319 321 325 328 330 331 331 330 329 328 328 328 327 327 327 326 323 322 323 323 323 324 323 320 317 311 305 302 301 300 299 299 299 298 299 299 298 296 293 290 287 285 284 283 281 275 267 265 267 266 259 253 250 248 248 248 251 253 251 250 250 250 250 251 253 253 254 254 252
311 312 312 313 315 316 316 317 318 319 319 319 322 326 325 321 320 325 332 335 334 334 334 333 332 330 327 324 323 322 321 319 317 318 321 322 322 322 319 317 315 313 309 308 308 307 306 306 304 303 303 303 300 296 294 293 291 290 289 286 285 283 274 265 263 265 264 258 250 247 247 247 248 250 250 249 249 248 248 250 252 252 252 252 250
310 311 312 314 316 315 316 318 319 318 319 321 324 327 327 323 322 330 339 340 336 335 334 332 330 326 321 318 318 317 316 315 316 318 319 320 318 316 314 313 312 310 308 309 309 308 306 304 303 303 302 301 299 297 296 295 293 292 292 290 287 286 281 271 262 260 263 263 255 246 244 244 244 245 247 248 248 248 248 249 251 252 251 249 247
309 310 312 314 315 314 316 318 319 318 319 321 325 328 328 326 326 333 344 347 341 335 328 322 320 318 316 315 315 313 312 313 315 315 316 315 313 311 309 308 308 307 307 308 307 304 302 302 302 303 302 299 297 296 294 293 292 290 288 288 287 285 282 276 266 259 259 264 261 249 240 239 240 241 244 245 246 248 248 248 249 250 248 246 245
307 309 311 313 313 314 315 318 319 319 320 322 324 325 327 328 330 335 342 347 346 339 329 322 319 316 312 311 311 310 308 309 310 312 314 314 311 308 307 306 306 306 305 306 304 301 300 301 301 299 298 296 295 295 294 293 292 291 290 288 286 284 281 277 270 262 259 261 263 255 245 240 239 239 240 241 243 246 247 247 248 248 245 243 244
305 307 310 311 312 314 316 318 319 319 320 323 325 325 325 326 333 340 343 344 344 342 336 331 330 326 320 315 313 312 310 310 311 312 313 312 310 308 308 308 307 306 305 304 303 301 301 301 299 297 296 296 296 296 296 296 294 292 291 288 284 282 280 277 272 266 260 262 264 257 245 239 237 235 235 237 240 242 244 245 245 244 243 243 244
303 306 308 310 312 314 316 318 319 319 320 323 326 327 327 328 335 347 351 347 343 341 340 339 337 335 331 325 321 319 318 316 314 312 311 312 312 310 309 307 304 301 299 298 298 299 300 299 297 296 296 297 298 299 299 298 296 294 292 288 283 280 277 275 273 269 264 265 268 256 239 233 233 233 233 236 239 240 241 242 241 240 241 242 244
302 304 306 308 311 313 316 318 319 318 320 324 328 329 329 332 337 344 351 354 349 344 344 344 342 339 337 333 328 324 322 318 316 315 315 316 316 313 310 305 299 295 294 295 296 297 297 296 297 298 300 302 305 306 304 302 300 298 294 289 284 281 277 274 274 273 268 268 271 263 244 233 233 235 236 237 238 238 239 240 241 241 240 241 242
301 302 305 307 309 312 316 317 317 318 321 326 329 329 331 335 339 341 344 348 350 350 351 350 347 343 340 338 334 330 325 322 322 324 324 322 319 315 308 300 293 291 292 294 296 297 299 301 304 308 310 311 310 309 306 303 301 299 296 291 285 281 277 274 273 273 271 269 271 269 257 243 237 236 237 238 238 238 238 239 241 240 239 240 241
299 300 303 305 307 312 315 316 316 317 321 327 331 331 333 337 340 342 342 343 345 347 350 352 350 345 342 340 339 335 332 331 333 333 328 322 319 316 310 304 302 303 305 305 306 307 310 313 315 316 317 316 314 312 309 306 303 300 296 291 285 279 275 273 272 271 269 268 268 266 261 255 247 242 240 241 240 238 237 238 240 240 240 241 242
297 298 301 304 307 311 314 315 315 317 322 329 332 332 333 337 341 344 345 344 344 346 347 348 348 347 347 347 344 341 343 345 342 335 329 324 321 320 320 319 319 320 320 320 320 319 319 321 324 326 325 322 321 322 321 317 312 307 301 295 287 280 274 272 271 269 268 270 270 263 256 254 251 245 242 241 239 237 238 239 240 240 240 241 242
295 297 300 304 307 311 314 315 315 318 324 330 332 332 335 339 344 347 348 347 348 348 349 349 349 351 354 354 350 349 353 353 346 339 336 334 330 329 332 333 331 328 326 326 327 326 326 330 336 337 332 329 331 337 336 330 324 318 312 304 293 283 278 275 274 275 277 279 271 257 250 251 251 246 243 242 239 237 236 238 240 241 243 243 242
294 298 302 304 307 311 313 314 315 320 326 330 331 333 337 343 348 351 351 350 351 352 352 354 356 357 357 356 354 356 358 356 351 348 350 349 346 344 343 341 338 336 333 333 333 331 331 336 342 341 336 337 343 347 344 338 332 326 320 311 299 288 282 279 279 282 286 284 271 255 250 255 257 252 247 245 243 239 235 236 239 241 242 243 241
292 297 301 304 306 309 311 313 316 322 327 328 330 335 340 346 351 353 352 352 354 355 356 359 2 2 360 359 360 1 1 360 359 359 359 358 357 355 350 347 345 344 341 338 337 336 337 341 344 343 341 345 351 352 349 345 338 329 320 312 301 290 283 280 281 284 288 286 273 258 252 255 258 257 252 246 243 241 238 236 236 237 239 242 241
291 295 299 301 304 306 309 313 318 323 326 327 330 336 342 348 352 355 353 352 354 357 0 3 4 4 5 7 7 4 1 5 9 9 7 6 5 3 0 358 355 354 351 347 345 343 342 344 345 344 344 347 351 351 351 350 346 339 330 321 311 302 295 291 289 290 293 290 278 263 254 252 253 256 253 245 238 236 237 237 236 239 243 244 241
290 295 299 299 302 305 308 313 318 322 324 327 329 334 341 347 351 353 352 352 353 357 2 6 7 7 9 14 15 10 7 11 15 16 16 15 14 12 11 8 3 0 358 355 352 349 347 346 347 346 345 346 348 347 347 348 350 350 348 340 329 320 313 308 303 301 299 291 276 263 257 257 256 255 252 246 240 238 239 239 239 241 241 239 234
290 295 297 298 301 305 307 312 317 320 322 324 327 331 337 343 347 348 349 351 353 356 360 5 8 10 12 15 17 15 13 15 17 19 20 21 20 18 17 15 11 8 4 359 356 354 352 351 351 349 347 347 348 348 347 348 349 351 352 352 348 339 330 323 318 313 306 293 276 263 260 263 264 260 256 251 246 242 241 239 238 237 234 230 227
290 294 295 297 302 306 308 312 316 319 320 323 325 328 333 339 342 344 346 349 353 355 358 3 8 12 13 14 15 16 16 17 18 18 20 21 22 21 20 19 18 16 13 9 5 1 359 358 357 356 355 354 352 352 352 352 353 353 353 354 355 352 346 342 337 330 324 315 301 286 278 274 271 264 258 254 248 243 239 236 233 231 228 225 223
288 291 294 297 302 306 309 312 315 316 319 321 324 327 331 336 338 339 342 347 352 355 359 3 8 11 12 13 14 15 17 17 17 18 18 20 21 22 21 21 20 20 19 18 16 12 10 8 5 3 2 1 0 359 357 356 358 360 359 359 1 0 359 359 359 357 352 343 334 324 310 293 280 268 259 251 245 240 235 232 229 226 223 221 219
286 288 291 295 300 304 308 311 313 314 317 319 323 326 331 333 334 336 340 346 350 354 359 4 8 10 11 13 15 16 17 17 18 18 18 18 19 20 21 22 22 21 21 21 21 20 20 19 18 15 12 9 7 6 5 3 2 2 2 1 3 6 8 8 6 7 4 355 346 343 342 323 295 275 261 250 244 239 234 230 227 223 221 219 217
283 286 289 293 298 303 306 310 313 314 316 320 326 330 333 333 333 335 339 344 348 353 359 4 7 8 11 13 15 16 17 18 18 18 18 18 18 18 19 21 22 23 23 23 22 23 24 25 26 27 26 23 19 15 12 10 8 5 4 2 1 3 8 10 9 10 13 12 5 360 359 354 324 287 266 252 243 236 229 225 223 220 218 216 215
281 284 287 292 297 302 306 309 313 316 318 323 330 334 334 334 334 336 339 342 346 351 356 1 4 6 9 11 13 14 16 17 18 18 18 19 18 18 19 20 22 23 24 23 23 24 25 26 28 30 33 33 32 29 26 23 20 16 14 13 13 14 17 23 26 25 23 23 23 19 13 10 348 288 257 242 233 226 218 214 212 211 210 210 208
279 281 285 290 296 301 305 308 311 315 320 325 330 332 332 332 334 337 339 340 343 347 351 355 358 1 4 7 8 10 12 13 15 17 17 18 19 19 19 19 21 22 24 24 23 23 24 26 28 30 31 33 36 37 36 35 34 33 33 32 31 30 30 35 39 40 37 34 35 35 32 28 21 307 223 209 207 206 202 200 199 199 199 198 197
276 278 283 290 294 297 302 306 310 315 320 324 328 329 329 329 332 335 336 338 340 342 345 349 352 355 357 360 2 4 5 7 9 11 13 14 16 17 18 18 19 20 22 24 24 23 23 24 26 29 30 30 32 35 38 38 38 39 40 41 41 41 42 43 45 45 43 40 40 42 44 46 55 82 124 154 171 178 181 182 183 183 183 183 182
275 277 284 289 292 296 301 305 310 315 320 322 323 324 325 326 328 329 330 332 334 336 338 341 345 347 349 352 355 357 359 0 2 3 5 7 9 12 13 15 16 17 19 20 22 23 23 22 23 26 29 30 29 30 33 35 37 37 38 41 44 46 48 49 49 49 48 47 46 47 49 53 66 83 95 107 123 138 151 159 162 164 168 170 172
276 281 287 291 293 298 303 306 310 313 315 317 318 318 318 321 323 324 325 327 328 330 332 334 337 339 342 345 348 350 351 353 355 357 358 0 2 4 7 9 11 13 14 16 17 19 21 21 21 22 24 28 29 29 29 31 33 34 35 37 41 45 48 51 52 53 53 52 53 54 57 62 69 77 84 91 102 116 127 136 141 147 152 157 160